Puyallup, WA

2:58 PM PDT on April 26, 2018 (GMT -0700)
Pierce County - Thun Field

Weather History for KPLU - November, 2013

Change the Weather History Date:

Monday, November 11, 2013

  Actual Average (KTCM) Record (KTCM)
Temperature  
Mean Temperature 47 °F -  
Max Temperature 55 °F 51 °F 68 °F (1990)
Min Temperature 39 °F 35 °F 19 °F (1955)
Degree Days  
Heating Degree Days 18    
Moisture  
Dew Point 45 °F    
Average Humidity 96    
Maximum Humidity 100    
Minimum Humidity 72    
Precipitation  
Precipitation 0.00 in - - ()
Sea Level Pressure  
Sea Level Pressure 30.09 in    
Wind  
Wind Speed 0 mph (North)    
Max Wind Speed 0 mph    
Max Gust Speed -    
Visibility 7 miles    
Events      
Averages and records for this station are not official NWS values.
T = Trace of Precipitation, MM = Missing Value Source: NWS Daily Summary

Daily Weather History Graph

Daily Weather History Graph

Search for Another Location

Airport or City:

Astronomy

Nov. 11, 2013 Rise Set
Actual Time 7:07 AM PST 4:38 PM PST
Civil Twilight 6:34 AM PST 5:11 PM PST
Nautical Twilight 5:57 AM PST 5:48 PM PST
Astronomical Twilight 5:21 AM PST 6:23 PM PST
Moon 1:43 PM PST (11/11) 12:35 AM PST (11/11)
Length of Visible Light 10h 36m
Length of Day
9h 30m
Waxing Gibbous, 67% of the Moon is Illuminated
Nov 11
Waxing Gibbous
Nov 17
Full
Nov 25
Last Quarter
Dec 2
New
Dec 9
First Quarter

Hourly Weather History & Observations

Time (PST) Temp. Dew Point Humidity Pressure Visibility Wind Dir Wind Speed Gust Speed Precip Events Conditions
12:15 AM 46.4 °F 46.4 °F 100% 30.11 in 10.0 mi Calm Calm - N/A   Unknown
12:35 AM 46.4 °F 46.4 °F 100% 30.11 in 10.0 mi Calm Calm - N/A   Unknown
12:55 AM 46.4 °F 46.4 °F 100% 30.11 in 10.0 mi Calm Calm - N/A   Unknown
1:15 AM 46.4 °F 46.4 °F 100% 30.11 in 10.0 mi Calm Calm - N/A   Unknown
1:35 AM 44.6 °F 44.6 °F 100% 30.12 in 9.0 mi Calm Calm - N/A   Unknown
1:55 AM 44.6 °F 44.6 °F 100% 30.12 in 9.0 mi Calm Calm - N/A   Unknown
2:15 AM 44.6 °F 44.6 °F 100% 30.12 in 7.0 mi Calm Calm - N/A   Unknown
2:35 AM 44.6 °F 44.6 °F 100% 30.11 in 3.0 mi Calm Calm - N/A   Mist
2:55 AM 44.6 °F 44.6 °F 100% 30.11 in 4.0 mi Calm Calm - N/A   Mist
3:15 AM 44.6 °F 44.6 °F 100% 30.12 in 1.8 mi Calm Calm - N/A   Mist
3:35 AM 44.6 °F 44.6 °F 100% 30.12 in 4.0 mi Calm Calm - N/A   Mist
3:55 AM 44.6 °F 44.6 °F 100% 30.12 in 3.0 mi Calm Calm - N/A   Mist
4:15 AM 44.6 °F 44.6 °F 100% 30.12 in 2.5 mi Calm Calm - N/A   Mist
4:35 AM 44.6 °F 44.6 °F 100% 30.12 in 5.0 mi Calm Calm - N/A   Mist
4:55 AM 44.6 °F 44.6 °F 100% 30.12 in 7.0 mi Calm Calm - N/A   Unknown
5:15 AM 44.6 °F 44.6 °F 100% 30.13 in 5.0 mi Calm Calm - N/A   Mist
5:35 AM 44.6 °F 44.6 °F 100% 30.13 in 10.0 mi Calm Calm - N/A   Unknown
5:55 AM 44.6 °F 44.6 °F 100% 30.13 in 5.0 mi Calm Calm - N/A   Mist
6:15 AM 44.6 °F 44.6 °F 100% 30.13 in 2.5 mi Calm Calm - N/A   Mist
6:35 AM 44.6 °F 44.6 °F 100% 30.14 in 1.0 mi Calm Calm - N/A   Mist
6:55 AM 44.6 °F 44.6 °F 100% 30.15 in 2.0 mi Calm Calm - N/A   Mist
7:15 AM 44.6 °F 44.6 °F 100% 30.16 in 3.0 mi Calm Calm - N/A   Mist
7:35 AM 44.6 °F 44.6 °F 100% 30.17 in 2.5 mi Calm Calm - N/A   Mist
7:55 AM 42.8 °F 42.8 °F 100% 30.15 in 0.8 mi Calm Calm - N/A   Mist
8:15 AM 44.6 °F 44.6 °F 100% 30.15 in 1.2 mi Calm Calm - N/A   Mist
8:35 AM 44.6 °F 44.6 °F 100% 30.16 in 3.0 mi Calm Calm - N/A   Mist
8:55 AM 44.6 °F 44.6 °F 100% 30.16 in 3.0 mi Calm Calm - N/A   Mist
9:15 AM 44.6 °F 44.6 °F 100% 30.15 in 4.0 mi Calm Calm - N/A   Mist
9:35 AM 44.6 °F 44.6 °F 100% 30.15 in 5.0 mi Calm Calm - N/A   Mist
9:55 AM 44.6 °F 44.6 °F 100% 30.16 in 8.0 mi Calm Calm - N/A   Unknown
10:15 AM 44.6 °F 44.6 °F 100% 30.16 in 10.0 mi Calm Calm - N/A   Unknown
10:35 AM 46.4 °F 46.4 °F 100% 30.15 in 10.0 mi Calm Calm - N/A   Unknown
10:55 AM 46.4 °F 46.4 °F 100% 30.15 in 10.0 mi Calm Calm - N/A   Unknown
11:15 AM 46.4 °F 46.4 °F 100% 30.14 in 10.0 mi Calm Calm - N/A   Unknown
11:35 AM 48.2 °F 46.4 °F 93% 30.13 in 10.0 mi Calm Calm - N/A   Unknown
11:55 AM 48.2 °F 46.4 °F 93% 30.13 in 10.0 mi Calm Calm - N/A   Unknown
12:15 PM 48.2 °F 46.4 °F 93% 30.13 in 10.0 mi Calm Calm - N/A   Unknown
12:35 PM 50.0 °F 46.4 °F 87% 30.13 in 10.0 mi Calm Calm - N/A   Unknown
12:55 PM 51.8 °F 46.4 °F 82% 30.11 in 10.0 mi Calm Calm - N/A   Unknown
1:15 PM 53.6 °F 46.4 °F 77% 30.11 in 10.0 mi Calm Calm - N/A   Unknown
1:35 PM 55.4 °F 48.2 °F 77% 30.09 in 10.0 mi Calm Calm - N/A   Unknown
1:55 PM 55.4 °F 48.2 °F 77% 30.08 in 10.0 mi Calm Calm - N/A   Unknown
2:15 PM 55.4 °F 48.2 °F 77% 30.07 in 10.0 mi Calm Calm - N/A   Unknown
2:35 PM 55.4 °F 46.4 °F 72% 30.07 in 10.0 mi Calm Calm - N/A   Unknown
2:55 PM 55.4 °F 48.2 °F 77% 30.07 in 10.0 mi Calm Calm - N/A   Unknown
3:15 PM 55.4 °F 48.2 °F 77% 30.06 in 10.0 mi Calm Calm - N/A   Unknown
3:35 PM 55.4 °F 48.2 °F 77% 30.06 in 10.0 mi Calm Calm - N/A   Unknown
3:55 PM 53.6 °F 48.2 °F 82% 30.06 in 10.0 mi Calm Calm - N/A   Unknown
4:15 PM 51.8 °F 48.2 °F 88% 30.06 in 10.0 mi Calm Calm - N/A   Unknown
4:35 PM 48.2 °F 48.2 °F 100% 30.05 in 10.0 mi Calm Calm - N/A   Unknown
4:55 PM 48.2 °F 48.2 °F 100% 30.04 in 10.0 mi Calm Calm - N/A   Unknown
5:15 PM 44.6 °F 44.6 °F 100% 30.04 in 10.0 mi Calm Calm - N/A   Unknown
5:35 PM 44.6 °F 44.6 °F 100% 30.05 in 10.0 mi Calm Calm - N/A   Unknown
5:55 PM 42.8 °F 42.8 °F 100% 30.05 in 10.0 mi Calm Calm - N/A   Unknown
6:15 PM 44.6 °F 44.6 °F 100% 30.05 in 10.0 mi Calm Calm - N/A   Unknown
6:35 PM 44.6 °F 44.6 °F 100% 30.04 in 10.0 mi Calm Calm - N/A   Unknown
6:55 PM 44.6 °F 44.6 °F 100% 30.03 in 10.0 mi Calm Calm - N/A   Unknown
7:15 PM 41.0 °F 41.0 °F 100% 30.03 in 5.0 mi Calm Calm - N/A   Mist
7:35 PM 41.0 °F 41.0 °F 100% 30.03 in 3.0 mi Calm Calm - N/A   Mist
7:55 PM 41.0 °F 41.0 °F 100% 30.04 in 8.0 mi Calm Calm - N/A   Unknown
8:15 PM 41.0 °F 41.0 °F 100% 30.03 in 3.0 mi Calm Calm - N/A   Mist
8:35 PM 42.8 °F 42.8 °F 100% 30.04 in 5.0 mi Calm Calm - N/A   Mist
8:55 PM 42.8 °F 42.8 °F 100% 30.04 in 4.0 mi Calm Calm - N/A   Mist
9:15 PM 42.8 °F 42.8 °F 100% 30.03 in 5.0 mi Calm Calm - N/A   Mist
9:35 PM 39.2 °F 39.2 °F 100% 30.02 in 0.8 mi Calm Calm - N/A   Mist
9:55 PM 39.2 °F 39.2 °F 100% 30.02 in 2.0 mi Calm Calm - N/A   Mist
10:15 PM 41.0 °F 41.0 °F 100% 30.02 in 4.0 mi Calm Calm - N/A   Mist
10:35 PM 41.0 °F 41.0 °F 100% 30.01 in 5.0 mi Calm Calm - N/A   Mist
10:55 PM 41.0 °F 41.0 °F 100% 30.02 in 6.0 mi Calm Calm - N/A   Mist
11:15 PM 42.8 °F 42.8 °F 100% 30.04 in 7.0 mi Calm Calm - N/A   Unknown
11:35 PM 42.8 °F 42.8 °F 100% 30.05 in 10.0 mi Calm Calm - N/A   Unknown
11:55 PM 42.8 °F 42.8 °F 100% 30.06 in 8.0 mi Calm Calm - N/A   Unknown